MST,Max TemperatureF,Mean TemperatureF,Min TemperatureF,Max Dew PointF,MeanDew PointF,Min DewpointF,Max Humidity, Mean Humidity, Min Humidity, Max Sea Level PressureIn, Mean Sea Level PressureIn, Min Sea Level PressureIn, Max VisibilityMiles, Mean VisibilityMiles, Min VisibilityMiles, Max Wind SpeedMPH, Mean Wind SpeedMPH, Max Gust SpeedMPH,PrecipitationIn, CloudCover, Events, WindDirDegrees
2013-2-1,45,33,20,27,21,15,85,63,41,30.40,30.32,30.22,10,10,10,13,6,15,0.00,0,,163
2013-2-2,43,32,20,26,21,15,84,64,43,30.55,30.46,30.38,10,10,10,13,4,17,0.00,0,,153
2013-2-3,37,31,24,28,23,18,92,73,54,30.37,30.22,30.14,10,10,10,9,4,9,0.00,4,,150
2013-2-4,44,35,26,28,26,21,92,73,53,30.22,30.16,30.06,10,10,10,12,5,12,0.00,3,,154
2013-2-5,48,35,22,27,21,14,81,59,37,30.24,30.12,29.99,10,10,10,13,5,15,0.00,0,,162
2013-2-6,44,34,24,31,25,20,92,73,53,30.10,29.99,29.91,10,10,10,12,5,13,0.00,4,,143
2013-2-7,47,36,25,28,25,20,100,69,37,30.25,30.13,30.04,10,10,7,12,4,12,0.00,2,,140
2013-2-8,54,39,24,26,19,15,74,48,22,30.04,29.76,29.59,10,10,10,31,13,37,0.00,1,,157
2013-2-9,40,35,29,29,25,18,100,70,40,29.74,29.64,29.52,10,7,1,22,4,29,0.01,7,Snow,14
2013-2-10,35,28,20,24,19,14,88,66,43,29.91,29.84,29.75,10,10,9,17,5,21,T,6,Snow,153
2013-2-11,33,26,19,25,21,16,100,76,51,30.13,29.98,29.88,10,8,1,17,5,20,0.01,6,Snow,40
2013-2-12,33,27,20,18,13,8,77,56,35,30.32,30.23,30.11,10,10,9,13,5,17,T,4,,354
2013-2-13,42,31,20,20,15,11,81,59,37,30.33,30.26,30.17,10,10,10,12,4,13,0.00,2,,130
2013-2-14,42,31,20,20,17,14,77,56,34,30.32,30.25,30.17,10,10,10,15,6,18,0.00,3,,169
2013-2-15,42,30,18,17,14,11,73,51,29,30.49,30.42,30.32,10,10,10,14,5,14,0.00,1,,143
2013-2-16,50,34,18,18,13,10,74,48,21,30.51,30.36,30.17,10,10,10,10,5,13,0.00,0,,150
2013-2-17,55,39,22,21,14,6,77,46,15,30.14,29.88,29.66,10,10,10,23,9,30,0.00,1,,188
2013-2-18,40,30,19,17,10,3,68,45,22,30.16,30.07,29.84,10,10,10,24,7,32,0.00,1,,323
2013-2-19,46,31,16,14,6,0,62,39,16,30.12,29.90,29.65,10,10,10,22,9,28,0.00,0,,120
2013-2-20,42,34,25,31,26,10,100,65,30,29.64,29.59,29.52,10,5,1,16,6,23,0.08,7,Snow,135
2013-2-21,37,32,27,30,27,22,100,78,56,29.88,29.73,29.59,10,6,1,10,5,13,0.05,7,Snow,154
2013-2-22,32,23,14,28,23,8,100,77,53,30.16,29.95,29.87,10,3,0,15,7,20,0.04,7,Fog-Snow,329
2013-2-23,35,22,8,28,18,3,100,74,47,30.15,29.88,29.74,10,6,1,20,6,25,0.01,6,Snow,303
2013-2-24,28,19,9,21,16,7,92,78,63,30.14,29.93,29.80,10,9,2,17,6,29,T,7,Snow,17
2013-2-25,35,25,15,17,14,12,84,64,44,30.27,30.13,29.97,10,10,10,9,4,10,0.00,3,,127
2013-2-26,32,25,17,22,19,13,96,75,53,30.26,29.97,29.87,10,7,0,28,12,33,0.04,7,Fog-Snow,267
2013-2-27,35,25,14,15,12,9,88,64,40,30.42,30.37,30.30,10,10,10,13,6,26,0.00,1,,127
2013-2-28,39,27,14,19,11,4,67,48,29,30.54,30.46,30.41,10,10,10,22,7,29,0.00,3,,131